Regional Weather Roundup
Issued by NWS Memphis, TN

Home | Current Version | Previous Version | Text Only | Print | Product List | Glossary On
Versions: 1 2 3 4 5 6 7 8 9 10 11 12 13 14 15 16 17 18 19 20 21 22 23 24 25 26 27 28 29 30 31 32 33 34 35 36 37 38 39 40 41 42 43 44 45 46 47 48 49 50
000
ASUS44 KMEG 271810
RWRMEG
MEMPHIS CWA HOURLY WEATHER ROUNDUP
NATIONAL WEATHER SERVICE MEMPHIS TN
100 PM CDT MON APR 27 2015

...WEST TENNESSEE...

CITY           SKY/WX    TMP DP  RH WIND       PRES   REMARKS
MEMPHIS INTL   CLOUDY    61  42  49 NE15      29.98F
6HR MIN TEMP:  52; 6HR MAX TEMP:  61;

NWS MEMPHIS      N/A     59 N/A N/A MISG        N/A
JACKSON        CLOUDY    61  43  51 N14       30.00F
6HR MIN TEMP:  46; 6HR MAX TEMP:  61;

LEXINGTON      SUNNY     61  36  39 NE8       29.98F
SAVANNAH       SUNNY     61  32  33 N12       29.97F
DYERSBURG      CLOUDY    61  32  33 NE16      30.02F
6HR MIN TEMP:  46; 6HR MAX TEMP:  61;

UNION CITY     SUNNY     59  32  36 NE14      30.02S
PARIS          SUNNY     61  37  41 NE13      30.01F


...EASTERN ARKANSAS...

CITY           SKY/WX    TMP DP  RH WIND       PRES   REMARKS
JONESBORO      CLOUDY    57  41  55 NE25G33   30.02F
6HR MIN TEMP:  48; 6HR MAX TEMP:  59;

WEST MEMPHIS   CLOUDY    60  44  55 E15       29.97F
6HR MIN TEMP:  51; 6HR MAX TEMP:  60;

BATESVILLE     PTSUNNY   61  34  36 E14G28    30.01F
6HR MIN TEMP:  48; 6HR MAX TEMP:  61;

NEWPORT        PTSUNNY   60  43  53 NE21G26   30.02F
6HR MIN TEMP:  49; 6HR MAX TEMP:  60; 6HR PCP: TRACE;

WALNUT RIDGE   PTSUNNY   61  37  41 NE20G25   30.03F
6HR MIN TEMP:  46; 6HR MAX TEMP:  61;

BLYTHEVILLE    CLOUDY    62  39  42 NE18      30.02F
6HR MIN TEMP:  49; 6HR MAX TEMP:  62;

SEARCY         PTSUNNY   61  42  49 E20       30.00F
6HR MIN TEMP:  52; 6HR MAX TEMP:  61;

STUTTGART      CLOUDY    63  45  51 NE22      29.97F
6HR MIN TEMP:  54; 6HR MAX TEMP:  63;

PINE BLUFF     MOSUNNY   62  47  57 NE17G24   29.94F
6HR MIN TEMP:  54; 6HR MAX TEMP:  62; 6HR PCP:  0.02;

MONTICELLO     MOSUNNY   66  47  50 NE18      29.89F
6HR MIN TEMP:  57; 6HR MAX TEMP:  66;



...NORTH MISSISSIPPI...

CITY           SKY/WX    TMP DP  RH WIND       PRES   REMARKS
TUPELO         CLOUDY    63  40  42 NE16      29.95F
6HR MIN TEMP:  52; 6HR MAX TEMP:  63;

OXFORD         CLOUDY    59  41  51 E10G16    29.98S
OLIVE BRANCH   CLOUDY    59  43  55 NE12      29.97F
TUNICA         CLOUDY    61  45  55 NE13      29.98F
CLARKSDALE     CLOUDY    63  46  55 NE15G22   29.96S
CORINTH        CLOUDY    61  39  44 NE13G20   29.95F
GREENWOOD      CLOUDY    63  46  54 NE12      29.90F
6HR MIN TEMP:  56; 6HR MAX TEMP:  64;

COLUMBUS       CLOUDY    66  44  44 NE12      29.92F
6HR MIN TEMP:  53; 6HR MAX TEMP:  66;

STARKVILLE     FAIR      63  46  55 NE9       29.94R
GOLDEN TRIANGL SUNNY     63  45  51 NE12      29.92F


...SOUTHEAST MISSOURI...

CITY           SKY/WX    TMP DP  RH WIND       PRES   REMARKS
WEST PLAINS    SUNNY     61  34  36 NE14G24   30.05F
6HR MIN TEMP:  43; 6HR MAX TEMP:  61;

POPLAR BLUFF   MOSUNNY   62  35  36 NE14G25   30.03F
6HR MIN TEMP:  47; 6HR MAX TEMP:  63;

CAPE GIRARDEAU MOSUNNY   64  37  36 NE17G25   30.04F
6HR MIN TEMP:  45; 6HR MAX TEMP:  64;



...NORTHWEST ALABAMA...

CITY           SKY/WX    TMP DP  RH WIND       PRES   REMARKS
MUSCLE SHOALS  CLOUDY    63  40  42 N7        29.97F
6HR MIN TEMP:  50; 6HR MAX TEMP:  63;



...MIDDLE TENNESSEE...

CITY           SKY/WX    TMP DP  RH WIND       PRES   REMARKS
NASHVILLE      MOSUNNY   65  37  35 N12G17    29.99F
6HR MIN TEMP:  46; 6HR MAX TEMP:  65;

CLARKSVILLE    MOSUNNY   63  36  36 N14       30.00F
6HR MIN TEMP:  45; 6HR MAX TEMP:  63;

COLUMBIA       SUNNY     63  32  31 N6        29.97S


...WESTERN KENTUCKY...

CITY           SKY/WX    TMP DP  RH WIND       PRES   REMARKS
PADUCAH        PTSUNNY   64  38  38 NE13      30.01F
6HR MIN TEMP:  44; 6HR MAX TEMP:  64;

FORT CAMPBELL  MOSUNNY   62  41  46 N8G16     30.00F
6HR MIN TEMP:  44; 6HR MAX TEMP:  62;



...CENTRAL ARKANSAS...

CITY           SKY/WX    TMP DP  RH WIND       PRES   REMARKS
LITTLE ROCK    PTSUNNY   62  42  47 E22G28    29.97S
6HR MIN TEMP:  53; 6HR MAX TEMP:  62; 6HR PCP:  0.02;



SKY/WX REPORTED AS FAIR MEANS FEW OR NO CLOUDS BELOW
12 THOUSAND FEET.



USA.gov is the U.S. government's official web portal to all federal, state and local government web resources and services.